Location: Charentilly
(47.4702°N, 0.6096°E)
Time: 21:10:12
(UTC+01:00)

ISS - Visible Passes

Search period start: 12 November 2018 00:00
Search period end: 22 November 2018 00:00
Orbit: 402 x 409 km, 51.6° (Epoch: 13 November)

Date Brightness Start Highest point End Pass type
(mag) Time Alt. Az. Time Alt. Az. Time Alt. Az.
12 Nov -3.4 05:51:45 58° SE 05:51:45 58° SE 05:54:30 10° ESE visible
13 Nov -0.5 05:02:03 13° ESE 05:02:03 13° ESE 05:02:27 10° ESE visible
13 Nov -2.4 06:34:44 22° WSW 06:35:26 24° SW 06:38:07 10° SSE visible
14 Nov -1.8 05:45:05 23° SSE 05:45:05 23° SSE 05:46:36 10° SE visible
15 Nov -1.3 06:28:13 11° SSW 06:28:13 11° SSW 06:28:43 10° SSW visible
